TimeCDT,TemperatureF,Dew PointF,Humidity,Sea Level PressureIn,VisibilityMPH,Wind Direction,Wind SpeedMPH,Gust SpeedMPH,PrecipitationIn,Events,Conditions,WindDirDegrees,DateUTC
12:53 AM,30.9,24.1,76,30.15,10.0,Calm,Calm,-,N/A,,Clear,0,2013-04-20 05:53:00
1:53 AM,28.0,23.0,81,30.16,10.0,Calm,Calm,-,N/A,,Clear,0,2013-04-20 06:53:00
2:53 AM,30.0,23.0,75,30.17,10.0,Calm,Calm,-,N/A,,Clear,0,2013-04-20 07:53:00
3:53 AM,28.9,25.0,85,30.19,2.5,Calm,Calm,-,N/A,,Clear,0,2013-04-20 08:53:00
4:14 AM,26.6,23.0,86,30.18,10.0,Calm,Calm,-,N/A,,Clear,0,2013-04-20 09:14:00
4:53 AM,25.0,21.9,88,30.19,10.0,North,4.6,-,N/A,,Clear,10,2013-04-20 09:53:00
5:53 AM,25.0,21.9,88,30.21,10.0,Calm,Calm,-,N/A,,Clear,0,2013-04-20 10:53:00
6:53 AM,27.0,23.0,85,30.23,10.0,Calm,Calm,-,N/A,,Clear,0,2013-04-20 11:53:00
7:53 AM,30.9,27.0,85,30.25,10.0,Calm,Calm,-,N/A,,Clear,0,2013-04-20 12:53:00
8:53 AM,37.0,28.0,70,30.27,10.0,Calm,Calm,-,N/A,,Overcast,0,2013-04-20 13:53:00
9:53 AM,39.0,24.1,55,30.28,10.0,East,6.9,-,N/A,,Mostly Cloudy,100,2013-04-20 14:53:00
10:53 AM,42.1,23.0,47,30.29,10.0,East,8.1,-,N/A,,Mostly Cloudy,80,2013-04-20 15:53:00
11:53 AM,44.1,23.0,43,30.29,10.0,ESE,9.2,-,N/A,,Overcast,120,2013-04-20 16:53:00
12:53 PM,46.9,23.0,39,30.27,10.0,SE,8.1,-,N/A,,Mostly Cloudy,130,2013-04-20 17:53:00
1:53 PM,48.9,21.9,35,30.25,10.0,SE,10.4,-,N/A,,Overcast,140,2013-04-20 18:53:00
2:53 PM,52.0,23.0,32,30.21,10.0,SE,13.8,-,N/A,,Scattered Clouds,130,2013-04-20 19:53:00
3:53 PM,53.1,21.9,30,30.19,10.0,ESE,11.5,-,N/A,,Mostly Cloudy,120,2013-04-20 20:53:00
4:53 PM,54.0,23.0,30,30.18,10.0,ESE,12.7,-,N/A,,Clear,120,2013-04-20 21:53:00
5:53 PM,53.1,23.0,31,30.18,10.0,ESE,12.7,-,N/A,,Partly Cloudy,110,2013-04-20 22:53:00
6:53 PM,52.0,26.1,37,30.18,10.0,SE,10.4,-,N/A,,Scattered Clouds,140,2013-04-20 23:53:00
7:53 PM,51.1,24.1,35,30.18,10.0,ESE,12.7,-,N/A,,Mostly Cloudy,120,2013-04-21 00:53:00
8:53 PM,50.0,26.1,39,30.19,10.0,ESE,10.4,-,N/A,,Overcast,110,2013-04-21 01:53:00
9:53 PM,48.9,27.0,43,30.21,10.0,ESE,8.1,-,N/A,,Mostly Cloudy,120,2013-04-21 02:53:00
10:53 PM,48.0,26.1,42,30.18,10.0,ESE,12.7,23.0,N/A,,Mostly Cloudy,120,2013-04-21 03:53:00
11:53 PM,46.9,27.0,46,30.18,10.0,ESE,6.9,-,N/A,,Clear,120,2013-04-21 04:53:00